DMSP 5D-2 F13 DEB, 40515

Orbit data source: Space-Track

DMSP 5D-2 F13 DEB, 40515 is space debris in SSO originally from a launch on Fri, 24 Mar 1995 UTC launched from the Air Force Western Test Range (AFWTR). Debris objects in space refer to the collection of defunct objects orbiting the Earth. Examples of debris include non-operational satellites, rocket bodies, and fragments generated from explosions, collisions, or faulty payload assembly.

Loading next visibility...
Identifier
40515, 1995-015DB
Orbit
SSO
Country
Flag of USUS
Related business
Manufacturer
Unknown
Mission
Spacecraft
Bus & Motor
Unknown
Mass
Unknown
Launch date (UTC)
1995-03-24 (31 years ago)
Launch vehicle
Unknown
Launch site
Air Force Western Test Range (AFWTR)
Object type
Payload
Rocket body
Debris
Shape & HBR
Unknown shape, 0.1 m
Radar Cross Section
Small (<0.1 m²)

Expand to show TLE details & history
Last TLE update: 22 hours ago

TLE from 22 hours ago
0 DMSP 5D-2 F13 DEB
1 40515U 95015DB  26133.07391088  .00003439  00000-0  11365-2 0  9993
2 40515  98.8223 172.4931 0016451  32.6897 327.5304 14.38592076576599
Epoch: 2026-05-13T01:46Z
TLE epoch observation values (Epoch: 2026-05-13T01:46:25.900Z)
Latitude
-0.00001°
Longitude
-84.95398°
Altitude
756.182 km
Speed
7.482 km/s
True Right ascension
11h 29m 58s
True Declination
0° 00' 00"
Sunlit
Object was in full shadow at epoch
Visualization orbit readout
Latitude
Unknown
Longitude
Unknown
Altitude
Unknown
Speed
Unknown
Apparent Right ascension
Unknown
Apparent Declination
Unknown
Sunlit
N/A
Visualization observer readout
Local Sidereal Time
08:22:30
Azimuth
Unknown
Elevation
Unknown
Doppler factor
Unknown
Orbital elements
Apogee altitude
772.037 km
Perigee altitude
748.55 km
Semi-major axis
7,138.43 km
Eccentricity
0.00165
Inclination
98.8223°
RAAN
172.4931°
Arg. of periapsis
32.6897°
True anomaly
327.42902°
Mean anomaly
327.5304°
Eccentric anomaly
327.47973°
Mean motion
3.59865 °/min
Orbital period
100.04 mins
BSTAR
0.0011365
Loading maneuver chart data...
Computing Atmospheric mass density...

Documentation

Showing up to 5 results
|